Hourly Data Report for July 27, 2021

MUSKOKA
ONTARIO
Current Station Operator: NAVCAN

44°58'29.000" N
79°18'12.000" W
281.90 m
6115529
71532
YQA

Download Data

Hourly Data (July 2021)
Hourly Data Report for July 27, 2021
TIME
LST
Temp Definition
°C
Dew Point Definition
°C
Rel Hum Definition
%
Precip. Amount Definition
mm

Wind Dir Definition
10's deg

Wind Spd Definition
km/h
Visibility Definition
km
Stn Press Definition
kPa
Hmdx Definition


Wind Chill Definition


Weather Definition


00:00 15.1 14.8 98 0.0   0 11.3 98.10     LegendNANA
01:00 14.6 14.5 99 0.0   0 9.7 98.09     Fog
02:00 13.9 13.9 100 0.0 19 4 9.7 98.06     Fog
03:00 14.5 14.2 98 0.0 LegendMM 4 14.5 98.09     LegendNANA
04:00 14.0 13.9 99 0.0   0 9.7 98.07     Fog
05:00 13.9 13.8 99 0.0 LegendMM 4 9.7 98.00     Fog
06:00 15.5 15.4 99 0.0 36 5 11.3 98.07     LegendNANA
07:00 16.5 16.3 99 0.5   0 4.8 98.15     Rain, Fog
08:00 16.8 16.6 99 1.5 18 5 9.7 98.19     Rain, Fog
09:00 17.1 16.9 99 1.0 13 8 11.3 98.09     Rain
10:00 17.8 17.3 97 0.0   0 16.1 98.06     LegendNANA
11:00 18.6 17.3 92 0.0 LegendMM 4 16.1 98.08     LegendNANA
12:00 19.8 17.4 86 0.0 22 8 16.1 98.13     LegendNANA
13:00 21.4 17.3 77 0.0 30 8 16.1 98.15 27   LegendNANA
14:00 23.1 16.8 67 0.0 28 17 16.1 98.13 28   LegendNANA
15:00 23.5 16.0 62 0.0 29 13 16.1 98.10 28   LegendNANA
16:00 23.6 16.4 64 0.0 32 13 16.1 98.11 28   LegendNANA
17:00 24.3 16.6 62 0.0 31 13 16.1 98.12 29   LegendNANA
18:00 22.8 16.3 67 0.0 32 13 14.5 98.17 28   LegendNANA
19:00 21.5 16.5 73 0.0 31 8 16.1 98.20 26   LegendNANA
20:00 19.9 16.4 80 0.0 LegendMM 8 14.5 98.27     LegendNANA
21:00 18.0 16.0 88 0.0   0 16.1 98.33     LegendNANA
22:00 16.9 15.8 93 0.0   0 16.1 98.36     LegendNANA
23:00 15.9 15.4 97 0.0   0 11.3 98.39     LegendNANA

Notes on Data Quality.

Legend

  • E = Estimated
  • M = Missing
  • NA = Not Available*
  • [empty] = Indicates an unobserved value
Date modified: